2017 Kona Chocolate Run

Northville, MI
2017-11-19
Starts on: 2017-11-19
Where: Northville, MI
Categories: 5K Cocoa Mile 10K
Description: MICHIGAN’S LARGEST CHOCOLATE PARTY! – Kona Chocolate Run: 10K, 5K Run/Walk, Cocoa Mile ~ A festive race event by Kona Running Co. Celebrate the holidays with Cups of Panera Bread Hot Chocolate, Chocolate Chip Cookies, Guernsey Chocolate Milk & Sanders Chocolate Candy with music in downtown Plymouth! Heated Warming Tent next to Chocolate Buffet Tents - 2017 Kona Triple Crown Series: Complete all 3 of our Kona Running Co. race events (Kona Cheesecake Run, Wicked Halloween Run, and Kona Chocolate Run) in CY 2017 & qualify for some serious extra bling!
M45-49 5K Run/Walk
name bib rank time pace hometown
Jeff Fedewa 3045 1 00:19:50 06:24 Plymouth, MI
Jeff Klevering 2781 2 00:21:22 06:53 South Lyon, MI
Greg Hall 2331 3 00:22:32 07:16 Waterford, MI
Chad Marlett 2609 4 00:22:54 07:23 Plymouth, MI
Stefan Mischo 2318 5 00:24:39 07:57 Plymouth, MI
Brian Moss 847 6 00:25:14 08:08 Northville, MI
Dan Dickhudt 2386 7 00:25:21 08:10 Dearborn Heights, MI
David Wong 3025 8 00:25:56 08:22 Farmington, MI
Mark Atchley 111 9 00:26:04 08:24 Dexter, MI
Jeff Grundy 259 10 00:26:20 08:29 Washington, MI
Craig Barber 1557 11 00:26:37 08:35 Sylvania, OH
Shean Daniluk 187 12 00:26:45 08:37 Newmarket, --
Ronald Plonkey 1627 13 00:26:51 08:39 Troy, MI
BRIAN TEMPLE 891 14 00:27:57 09:00 Canton, MI
Jeff Withey 131 15 00:27:57 09:01 Ypsilanti, MI
Mark Berke 3050 16 00:28:24 09:09 Farmington, MI
Stephen Chene 2916 17 00:28:24 09:09 Farmington, MI
Stephen Olsen 2936 18 00:28:25 09:09 Northville, MI
Anthony Pingston 757 19 00:28:33 09:12 Plymouth, MI
Chris Arms 1516 20 00:28:36 09:13 Farmington, MI
Dinesh Laungani 3063 21 00:28:44 09:16 -, US
Rodney Richer 1418 22 00:29:00 09:21 Northville, MI
Mateusz Nowakowski 3020 23 00:29:48 09:36 Northville, MI
matthew walker 2684 24 00:29:57 09:39 Hazel Park, MI
Matthew Pride 2655 25 00:30:28 09:49 Plymouth, MI
Howard Rye 1022 26 00:30:42 09:53 Corunna, MI
Eric Skinner 3103 27 00:31:04 10:01 West Bloomfield, MI
Ian Baringer 2719 28 00:31:46 10:14 Canton, MI
Craig Poet 737 29 00:31:47 10:14 New Hudson, MI
Jason Meredith 2440 30 00:32:00 10:19 Highland, MI
Michael Stoller 3016 31 00:32:34 10:30 Grosse Pointe, MI
Troy Johansson 2733 32 00:32:59 10:38 Ferndale, MI
Gerard Johnson 2942 33 00:33:25 10:46 South Lyon, MI
Darin Horton 28 34 00:33:33 10:49 Auburn Hills, MI
Ari Caliskan 1154 35 00:33:39 10:51 Canton, MI
Robert Sherwin 2984 36 00:34:51 11:14 Northville, MI
William Allen 2222 37 00:35:14 11:21 Williamston, MI
Akira Tsunezawa 174 38 00:35:39 11:29 Ann Arbor, MI
John St. Pierre 2587 39 00:35:40 11:29 Macomb, MI
Bryon Wasacz 113 40 00:35:41 11:30 South Lyon, MI
Harold Morris 2806 41 00:35:54 11:34 Willis, MI
Iltefat Hamzavi 3081 42 00:36:06 11:38 Northville, MI
Herman Brey 710 43 00:36:47 11:51 Ypsilanti, MI
Michael Bohnet 2256 44 00:37:02 11:56 Mason, MI
Steve Schreiber 29 45 00:37:18 12:01 Westland, MI
Dennis Yack 623 46 00:37:38 12:08 Flat Rock, MI
Jeffrey Schultz 2840 47 00:37:40 12:08 Plymouth, MI
Steven Smalenberg 2296 48 00:37:55 12:13 Warren, MI
Andrew W Albrant Jr 2464 49 00:38:15 12:19 Madison Heights, MI
Thomas Owen 1643 50 00:38:28 12:23 Sylvania, OH
Mark Bishar 2979 51 00:39:11 12:37 Ann Arbor, MI
Dan Bondy 902 52 00:39:42 12:47 Plymouth, MI
Clark Rhoades 280 53 00:41:08 13:15 La Salle, MI
Mohamad Ammar 2359 54 00:41:57 13:31 Whitmore Lake, MI
Rohit Laungani 3064 55 00:42:06 13:34 -, US
Carl Evans 268 56 00:42:51 13:48 Ann Arbor, MI
Anthony Livingston 1233 57 00:43:13 13:55 Rochester, MI
Vincent Williams 2140 58 00:44:00 14:10 Augusta, MI
David Katich 2541 59 00:45:47 14:45 Rochester, MI
John Schnoes 802 60 00:46:04 14:50 Plymouth, MI
Allan Pennill 751 61 00:46:25 14:57 South Lyon, MI
Randy Joiner 3136 62 00:47:46 15:23 Clinton Township, MI
Robert McCrumb 1526 63 00:47:49 15:24 Birch Run, MI
Daniel Gilmore 2081 64 00:48:38 15:40 Lansing, MI
Keith Miller 1537 65 00:49:13 15:51 Canton, MI
somil SHAH 2705 66 00:49:14 15:51 Canton, MI
Eric Goebel 1541 67 00:49:19 15:53 Canton, MI
Scott Hutchins 1493 68 00:52:12 16:49 Dearborn, MI
Erik Gorham 1583 69 00:53:07 17:07 Canton, MI
Patrick Bitner 154 70 00:53:13 17:08 Wyandotte, MI
ron cortez 85 71 00:57:16 18:27 Westland, MI
Dan Heaman 2747 72 00:58:23 18:48 South Lyon, MI
Scott Schillag 2709 73 00:59:16 19:05 Holly, MI
Thomas Sumner 971 74 01:00:34 19:30 Canton, MI
Eric Johnson 796 75 01:17:07 24:50 Livonia, MI